TimeGMT,TemperatureF,Dew PointF,Humidity,Sea Level PressureIn,VisibilityMPH,Wind Direction,Wind SpeedMPH,Gust SpeedMPH,PrecipitationIn,Events,Conditions,WindDirDegrees,DateUTC
5:20 AM,46.4,39.2,76,30.09,6.2,SW,9.2,-,N/A,,Mostly Cloudy,220,2012-11-07 05:20:00
5:50 AM,48.2,39.2,71,30.06,6.2,WSW,9.2,-,N/A,,Mostly Cloudy,240,2012-11-07 05:50:00
6:20 AM,48.2,41.0,76,30.06,6.2,SSW,8.1,-,N/A,,Scattered Clouds,200,2012-11-07 06:20:00
6:50 AM,48.2,41.0,76,30.06,6.2,West,10.4,-,N/A,,Scattered Clouds,270,2012-11-07 06:50:00
7:20 AM,48.2,41.0,76,30.06,6.2,WSW,18.4,-,N/A,,Partly Cloudy,250,2012-11-07 07:20:00
7:50 AM,48.2,41.0,76,30.06,6.2,West,12.7,-,N/A,,Partly Cloudy,260,2012-11-07 07:50:00
8:20 AM,50.0,41.0,71,30.06,6.2,WSW,20.7,32.2,N/A,,Partly Cloudy,250,2012-11-07 08:20:00
8:50 AM,50.0,41.0,71,30.09,6.2,WSW,11.5,-,N/A,,Partly Cloudy,240,2012-11-07 08:50:00
9:20 AM,50.0,41.0,71,30.06,6.2,West,20.7,32.2,N/A,,Partly Cloudy,260,2012-11-07 09:20:00
9:50 AM,51.8,41.0,67,30.06,6.2,WSW,24.2,36.8,N/A,,Partly Cloudy,250,2012-11-07 09:50:00
10:20 AM,51.8,41.0,67,30.09,6.2,WSW,13.8,-,N/A,,Partly Cloudy,250,2012-11-07 10:20:00
10:50 AM,51.8,41.0,67,30.06,6.2,WSW,23.0,38.0,N/A,,Partly Cloudy,250,2012-11-07 10:50:00
11:20 AM,51.8,41.0,67,30.06,6.2,West,28.8,42.6,N/A,,Partly Cloudy,260,2012-11-07 11:20:00
11:50 AM,51.8,41.0,67,30.06,6.2,West,20.7,-,N/A,,Partly Cloudy,260,2012-11-07 11:50:00
12:20 PM,51.8,42.8,71,30.04,6.2,West,25.3,-,N/A,,Partly Cloudy,260,2012-11-07 12:20:00
12:50 PM,51.8,42.8,71,30.04,6.2,West,26.5,-,N/A,,Partly Cloudy,260,2012-11-07 12:50:00
1:20 PM,53.6,42.8,67,30.04,6.2,WSW,27.6,-,N/A,,Partly Cloudy,250,2012-11-07 13:20:00
1:50 PM,53.6,42.8,67,30.04,6.2,WSW,21.9,-,N/A,,Partly Cloudy,250,2012-11-07 13:50:00
2:20 PM,53.6,42.8,67,30.04,6.2,WSW,24.2,-,N/A,,Partly Cloudy,240,2012-11-07 14:20:00
2:50 PM,51.8,44.6,76,30.04,6.2,SW,17.3,-,N/A,,Scattered Clouds,220,2012-11-07 14:50:00
3:20 PM,51.8,44.6,76,30.01,6.2,SW,17.3,-,N/A,,Scattered Clouds,220,2012-11-07 15:20:00
3:50 PM,50.0,44.6,82,30.01,6.2,SW,20.7,-,N/A,,Scattered Clouds,230,2012-11-07 15:50:00
4:20 PM,50.0,44.6,82,30.01,6.2,SW,21.9,-,N/A,,Scattered Clouds,230,2012-11-07 16:20:00
4:50 PM,50.0,44.6,82,30.01,6.2,SW,21.9,-,N/A,,Scattered Clouds,220,2012-11-07 16:50:00
5:20 PM,50.0,44.6,82,30.01,6.2,SW,18.4,-,N/A,,Scattered Clouds,220,2012-11-07 17:20:00
5:50 PM,50.0,44.6,82,29.98,6.2,SW,16.1,-,N/A,,Partly Cloudy,220,2012-11-07 17:50:00
6:20 PM,50.0,44.6,82,29.98,6.2,SW,23.0,-,N/A,,Scattered Clouds,230,2012-11-07 18:20:00
6:50 PM,50.0,44.6,82,29.95,6.2,SW,23.0,-,N/A,,Scattered Clouds,230,2012-11-07 18:50:00
7:20 PM,50.0,44.6,82,29.95,6.2,SW,21.9,-,N/A,,Scattered Clouds,220,2012-11-07 19:20:00
7:50 PM,50.0,44.6,82,29.95,6.2,SW,19.6,-,N/A,,Scattered Clouds,220,2012-11-07 19:50:00
8:20 PM,51.8,44.6,76,29.92,6.2,SW,18.4,32.2,N/A,,Partly Cloudy,230,2012-11-07 20:20:00
8:50 PM,50.0,44.6,82,29.92,6.2,SW,20.7,-,N/A,,Scattered Clouds,230,2012-11-07 20:50:00
9:20 PM,51.8,44.6,76,29.92,6.2,WSW,19.6,-,N/A,Rain,Light Rain Showers,240,2012-11-07 21:20:00
9:50 PM,51.8,44.6,76,29.95,6.2,WSW,17.3,-,N/A,Rain,Light Rain,250,2012-11-07 21:50:00